Flag for U.S.A. Weather past 2 weeks in Brockton, Massachusetts, U.S.A.

Now
54 °F

Cool.


Feels Like: 50 °F
Forecast: 51 / 60 °F
Wind: 15 mph from Northeast

Location: East Milton

Current Time: Oct 2, 2014 at 5:17:56 AM

Latest Report: Oct 2, 2014 at 4:54 AM


Visibility: N/A

Pressure: 30.14 "Hg

Humidity: 100%

Dew point: 54 °F

Location of BrocktonLocation

Historic Weather in Brockton — Graph

°F

Brockton temperature yesterday

Maximum temperature yesterday: 56 °F (at 9:54 AM)
Minimum temperature yesterday: 54 °F (at 12:54 AM)
Average temperature yesterday: 55 °F

Past Weeks' High & Low Weather Summary

 TemperatureHumidityPressure
High85 °F (Sep 28, 2:54 PM)100% (Sep 21, 8:54 PM)30.64 "Hg (Sep 21, 8:54 PM)
Low43 °F (Sep 19, 6:54 AM)34% (Sep 17, 4:54 PM)29.57 "Hg (Sep 22, 2:54 AM)
Average60 °F73%30.15 "Hg
* Reported Sep 17 3:54 AM — Oct 2 3:54 AM, Brockton, Weather by CustomWeather, © 2014

Note: Actual official high and low records may vary slightly from our data, if they occured in-between our weather recording intervals... More about our weather records

Advertising

Brockton weather history for previous 24 hours

 ConditionsComfort  
Time TempWeatherWind HumidityBarometerVisibility
3:54 AM
Oct 2
54 °FCool.14 mph100%30.12 "HgN/A
2:54 AM54 °FCool.12 mph100%30.12 "HgN/A
1:54 AM54 °FCool.15 mph100%30.12 "HgN/A
12:54 AM55 °FCool.17 mph100%30.11 "HgN/A
11:54 PM
Oct 1
55 °FCool.17 mph100%30.11 "HgN/A
10:54 PM55 °FCool.13 mph100%30.12 "HgN/A
9:54 PM55 °FCool.16 mph100%30.12 "HgN/A
8:54 PM55 °FCool.14 mph100%30.11 "HgN/A
7:54 PM56 °FCool.13 mph100%30.10 "HgN/A
6:54 PM55 °FCool.14 mph100%30.09 "HgN/A
5:54 PM55 °FCool.14 mph100%30.09 "HgN/A
4:54 PM54 °FCool.13 mph100%30.08 "HgN/A
3:54 PM55 °FCool.16 mph100%30.08 "HgN/A
2:54 PM54 °FCool.15 mph100%30.07 "HgN/A
1:54 PM54 °FCool.16 mph100%30.06 "HgN/A
12:54 PM55 °FCool.13 mph100%30.09 "HgN/A
11:54 AM55 °FCool.9 mph100%30.11 "HgN/A
10:54 AM55 °FCool.15 mph100%30.09 "HgN/A
9:54 AM56 °FCool.10 mph100%30.09 "HgN/A
8:54 AM55 °FCool.12 mph100%30.07 "HgN/A
7:54 AM55 °FCool.12 mph100%30.06 "HgN/A
6:54 AM55 °FCool.10 mph100%30.06 "HgN/A
5:54 AM55 °FCool.14 mph100%30.05 "HgN/A
Weather by CustomWeather, © 2014

See weather overviewHow to use our weather pages